Agadir Al Massira, Morocco

1:41 PM WET on January 20, 2018 (GMT +0000)
Agadir Al Massira

Weather History for GMAD - May, 2013

Change the Weather History Date:

Friday, May 31, 2013

  Actual Average Record
Temperature  
Mean Temperature 66 °F -  
Max Temperature 76 °F - - ()
Min Temperature 56 °F - - ()
Cooling Degree Days 1    
Growing Degree Days 16 (Base 50)    
Moisture  
Dew Point 54 °F    
Average Humidity 65    
Maximum Humidity 88    
Minimum Humidity 34    
Precipitation  
Precipitation 0.00 in - - ()
Sea Level Pressure  
Sea Level Pressure 29.97 in    
Wind  
Wind Speed 6 mph ()    
Max Wind Speed 12 mph    
Max Gust Speed -    
Visibility 5.7 miles    
Events      
T = Trace of Precipitation, MM = Missing Value Source: Averaged Metar Reports

Daily Weather History Graph

Daily Weather History Graph

Search for Another Location

Airport or City:

Trip Planner

Search our weather history database for the weather conditions in past years. The results will help you decide how hot, cold, wet, or windy it might be!

Date:

Astronomy

May. 31, 2013 Rise Set
Actual Time 6:36 AM WEST 8:34 PM WEST
Civil Twilight 6:09 AM WEST 9:01 PM WEST
Nautical Twilight 5:36 AM WEST 9:34 PM WEST
Astronomical Twilight 5:01 AM WEST 10:09 PM WEST
Moon 1:20 AM WEST (5/31) 1:16 PM WEST (5/31)
Length of Visible Light 14h 52m
Length of Day
13h 57m
Waning Gibbous, 54% of the Moon is Illuminated
May 31
Waning Gibbous
May 31
Last Quarter
Jun 8
New
Jun 16
First Quarter
Jun 23
Full

Hourly Weather History & Observations

Time (WEST) Temp. Dew Point Humidity Pressure Visibility Wind Dir Wind Speed Gust Speed Precip Events Conditions
12:00 AM 62.6 °F 55.4 °F 77% 29.98 in - South 11.5 mph - N/A   Clear
1:00 AM 61 °F 55 °F 74% 29.97 in 6 mi South 9.2 mph - -  
1:00 AM 60.8 °F 55.4 °F 82% 29.95 in - South 9.2 mph - N/A   Clear
2:00 AM 60.8 °F 55.4 °F 82% 29.95 in - South 5.8 mph - N/A   Clear
3:00 AM 59.0 °F 55.4 °F 88% 29.95 in - SSE 3.5 mph - N/A   Clear
4:00 AM 59 °F 54 °F 78% 29.96 in - Calm Calm - -  
4:00 AM 59.0 °F 53.6 °F 82% 29.95 in - Calm Calm - N/A   Unknown
5:00 AM 57.2 °F 53.6 °F 88% 29.95 in - Calm Calm - N/A   Unknown
6:00 AM 57.2 °F 53.6 °F 88% 29.95 in 6.2 mi Calm Calm - N/A   Partly Cloudy
7:00 AM 59 °F 54 °F 79% 29.99 in 6 mi Calm Calm - -   Mostly Cloudy
7:00 AM 59.0 °F 55.4 °F 88% 29.98 in 6.2 mi Calm Calm - N/A   Mostly Cloudy
8:00 AM 62.6 °F 53.6 °F 72% 30.01 in 6.2 mi Calm Calm - N/A   Mostly Cloudy
9:00 AM 64.4 °F 53.6 °F 68% 30.01 in 6.2 mi South 9.2 mph - N/A   Unknown
10:00 AM 68 °F 53 °F 49% 30.01 in 6 mi SSW 9.2 mph - -   Partly Cloudy
10:00 AM 68.0 °F 53.6 °F 60% 30.01 in 6.2 mi SSW 9.2 mph - N/A   Scattered Clouds
11:00 AM 69.8 °F 53.6 °F 56% 30.01 in 6.2 mi SW 5.8 mph - N/A   Scattered Clouds
12:00 PM 71.6 °F 53.6 °F 53% 30.01 in 6.2 mi SW 6.9 mph - N/A   Mostly Cloudy
1:00 PM 73 °F 54 °F 40% 29.99 in 6 mi WSW 6.9 mph - -   Mostly Cloudy
1:00 PM 73.4 °F 53.6 °F 50% 29.98 in 6.2 mi WSW 6.9 mph - N/A   Mostly Cloudy
2:00 PM 73.4 °F 55.4 °F 53% 29.98 in 6.2 mi West 9.2 mph - N/A   Scattered Clouds
3:00 PM 75.2 °F 53.6 °F 47% 29.95 in 6.2 mi WSW 6.9 mph - N/A   Unknown
4:00 PM 76 °F 53 °F 34% 29.94 in 5 mi WSW 11.5 mph - -   Scattered Clouds
4:00 PM 75.2 °F 53.6 °F 47% 29.95 in 5.0 mi WSW 11.5 mph - N/A   Partly Cloudy
5:00 PM 73.4 °F 51.8 °F 47% 29.92 in 5.0 mi WSW 11.5 mph - N/A   Partly Cloudy
6:00 PM 71.6 °F 51.8 °F 50% 29.92 in 6.2 mi SW 11.5 mph - N/A   Partly Cloudy
7:00 PM 70 °F 52 °F 43% 29.93 in 5 mi SSW 10.4 mph - -   Scattered Clouds
7:00 PM 69.8 °F 51.8 °F 53% 29.92 in 5.0 mi SSW 10.4 mph - N/A   Partly Cloudy
8:00 PM 66.2 °F 53.6 °F 64% 29.95 in - SSW 11.5 mph - N/A   Clear
9:00 PM 62.6 °F 55.4 °F 77% 29.95 in 5.0 mi South 6.9 mph - N/A   Unknown
10:00 PM 62 °F 54 °F 69% 29.99 in 5 mi South 3.5 mph - -  
10:00 PM 62.6 °F 55.4 °F 77% 29.98 in 5.0 mi South 3.5 mph - N/A   Unknown
11:00 PM 60.8 °F 53.6 °F 77% 30.01 in - Calm Calm - N/A   Clear